This is the latest recevied weather packets stored in our database for station/object KQ4EHY-1. If no packets are shown the sender has not sent any weather packets the latest 1 day(s).
| Time | Temp. | Humidity | Pressure | Rain* | Wind** | Luminosity | Snow |
|---|---|---|---|---|---|---|---|
| 1778052549 | 17.22° C | 75% | 1008.8 hPa | 0 mm | 0 m/s | - | - |
| 1778052369 | 17.22° C | 75% | 1008.8 hPa | 0 mm | 0 m/s | - | - |
| 1778052309 | 17.22° C | 73% | 1008.8 hPa | 0 mm | 0 m/s | - | - |
| 1778052249 | 17.22° C | 73% | 1008.8 hPa | 0 mm | 0 m/s | - | - |
| 1778052189 | 17.22° C | 73% | 1008.8 hPa | 0 mm | 0 m/s | - | - |
| 1778051769 | 17.22° C | 74% | 1009 hPa | 0 mm | 0 m/s | - | - |
| 1778051709 | 17.22° C | 72% | 1008.9 hPa | 0 mm | 0 m/s | - | - |
| 1778051649 | 17.22° C | 72% | 1008.9 hPa | 0 mm | 0 m/s | - | - |
| 1778051589 | 17.22° C | 72% | 1008.9 hPa | 0 mm | 0 m/s | - | - |
| 1778051469 | 17.22° C | 72% | 1008.9 hPa | 0 mm | 0 m/s | - | - |
| 1778051349 | 17.22° C | 76% | 1009 hPa | 0 mm | 0 m/s | - | - |
| 1778051229 | 17.22° C | 76% | 1009 hPa | 0 mm | 0 m/s | - | - |
| 1778051169 | 17.22° C | 76% | 1009 hPa | 0 mm | 0 m/s | - | - |
| 1778051049 | 17.22° C | 74% | 1009 hPa | 0 mm | 0 m/s | - | - |
| 1778050989 | 17.22° C | 74% | 1009 hPa | 0 mm | 0 m/s | - | - |
| 1778050629 | 17.22° C | 73% | 1009.1 hPa | 0 mm | 0 m/s | - | - |
| 1778050569 | 17.22° C | 73% | 1009.1 hPa | 0 mm | 0 m/s | - | - |
| 1778050269 | 17.22° C | 75% | 1009.3 hPa | 0 mm | 0 m/s | - | - |
| 1778050209 | 17.22° C | 73% | 1009.2 hPa | 0 mm | 0 m/s | - | - |
| 1778049909 | 16.67° C | 72% | 1009.3 hPa | 0 mm | 0 m/s | - | - |
| 1778049489 | 16.67° C | 73% | 1009.3 hPa | 0 mm | 0 m/s | - | - |
| 1778049309 | 16.67° C | 74% | 1009.1 hPa | 0 mm | 0 m/s | - | - |
| 1778049129 | 16.67° C | 74% | 1009.1 hPa | 0 mm | 0 m/s | - | - |
| 1778049069 | 16.67° C | 74% | 1009.1 hPa | 0 mm | 0 m/s | - | - |
| 1778048949 | 16.67° C | 75% | 1009 hPa | 0 mm | 0 m/s | - | - |
* Rain latest hour (hover to see other rain measurements)
** Current wind speed in m/s (hover to see current wind gust speed)